When you browse on this site, cookies collect data to enhance your experience and personalize the content and advertising you see.
Visit our Privacy Policy to learn more. By continuing to use the site, you agree to this use of cookies and data.
  • In Österreich
  • Länderverzeichnis
  • Für 7 Tage
  • Wassertemperatur
  • Satellitenkarten
  • Wetterkarte
  • News
  • Widgets
  • user-avatar
    Anmelden

    Stündliche Wetter Telawi

    Heute, 10 Dezember, Montag

    Zeit Temperatur Niederschläge Wind Luftdruck Luftfeuchtigkeit
    00:00 +4°C° 0 mm 1 m/S 709 mmHg 76%
    01:00 +4°C° 0 mm 1 m/S 709 mmHg 75%
    02:00 +4°C° 0 mm 1 m/S 709 mmHg 75%
    03:00 +3°C° 0 mm 1 m/S 708 mmHg 75%
    04:00 +3°C° 0 mm 1 m/S 708 mmHg 75%
    05:00 +3°C° 0 mm 1 m/S 708 mmHg 74%
    06:00 +3°C° 0 mm 1 m/S 708 mmHg 73%
    07:00 +4°C° 0 mm 1 m/S 708 mmHg 70%
    08:00 +5°C° 0 mm 1 m/S 707 mmHg 66%
    09:00 +5°C° 0 mm 1 m/S 707 mmHg 62%
    10:00 +7°C° 0 mm 1 m/S 707 mmHg 59%
    11:00 +8°C° 0 mm 1 m/S 706 mmHg 56%
    12:00 +9°C° 0 mm 1 m/S 706 mmHg 53%
    13:00 +9°C° 0 mm 1 m/S 706 mmHg 53%
    14:00 +9°C° 0 mm 1 m/S 706 mmHg 53%
    15:00 +9°C° 0 mm 1 m/S 706 mmHg 53%
    16:00 +8°C° 0 mm 1 m/S 706 mmHg 57%
    17:00 +7°C° 0 mm 1 m/S 706 mmHg 61%
    18:00 +6°C° 0 mm 1 m/S 707 mmHg 66%
    19:00 +6°C° 0 mm 1 m/S 707 mmHg 65%
    20:00 +5°C° 0 mm 1 m/S 707 mmHg 64%
    21:00 +5°C° 0 mm 1 m/S 707 mmHg 64%
    22:00 +5°C° 0 mm 1 m/S 707 mmHg 63%
    23:00 +5°C° 0 mm 1 m/S 707 mmHg 62%

    Morgen, 11 Dezember, Dienstag

    Zeit Temperatur Niederschläge Wind Luftdruck Luftfeuchtigkeit
    00:00 +5°C° 0 mm 1 m/S 707 mmHg 62%
    01:00 +4°C° 0 mm 2 m/S 707 mmHg 61%
    02:00 +4°C° 0 mm 2 m/S 707 mmHg 61%
    03:00 +4°C° 0 mm 2 m/S 706 mmHg 61%
    04:00 +4°C° 0 mm 2 m/S 706 mmHg 61%
    05:00 +4°C° 0 mm 2 m/S 706 mmHg 61%
    06:00 +4°C° 0 mm 2 m/S 706 mmHg 61%
    07:00 +5°C° 0 mm 2 m/S 706 mmHg 59%
    08:00 +7°C° 0 mm 1 m/S 706 mmHg 57%
    09:00 +7°C° 0 mm 1 m/S 706 mmHg 54%
    10:00 +9°C° 0 mm 1 m/S 705 mmHg 51%
    11:00 +10°C° 0 mm 1 m/S 705 mmHg 48%
    12:00 +11°C° 0 mm 1 m/S 705 mmHg 45%
    13:00 +11°C° 0 mm 1 m/S 704 mmHg 47%
    14:00 +11°C° 0 mm 1 m/S 704 mmHg 49%
    15:00 +11°C° 0 mm 1 m/S 704 mmHg 50%
    16:00 +10°C° 0.1 mm 1 m/S 704 mmHg 54%
    17:00 +9°C° 0.1 mm 1 m/S 704 mmHg 57%
    18:00 +9°C° 0.1 mm 1 m/S 704 mmHg 61%
    19:00 +8°C° 0 mm 1 m/S 704 mmHg 62%
    20:00 +8°C° 0 mm 1 m/S 704 mmHg 63%
    21:00 +7°C° 0 mm 1 m/S 703 mmHg 64%
    22:00 +8°C° 0.1 mm 1 m/S 704 mmHg 64%
    23:00 +8°C° 0.1 mm 1 m/S 704 mmHg 64%

    übermorgen, 12 Dezember, Mittwoch

    Zeit Temperatur Niederschläge Wind Luftdruck Luftfeuchtigkeit
    00:00 +8°C° 0.1 mm 1 m/S 704 mmHg 63%
    01:00 +6°C° 0.2 mm 2 m/S 704 mmHg 67%
    02:00 +6°C° 0.2 mm 2 m/S 704 mmHg 70%
    03:00 +6°C° 0.2 mm 2 m/S 705 mmHg 73%
    04:00 +6°C° 0.1 mm 2 m/S 705 mmHg 75%
    05:00 +6°C° 0.1 mm 1 m/S 705 mmHg 77%
    06:00 +6°C° 0.1 mm 1 m/S 706 mmHg 79%
    07:00 +6°C° 0.1 mm 1 m/S 706 mmHg 77%
    08:00 +7°C° 0.1 mm 1 m/S 706 mmHg 74%
    09:00 +7°C° 0.1 mm 1 m/S 707 mmHg 72%
    10:00 +8°C° 0.2 mm 1 m/S 706 mmHg 70%
    11:00 +8°C° 0.2 mm 1 m/S 706 mmHg 68%
    12:00 +9°C° 0.2 mm 1 m/S 706 mmHg 66%
    13:00 +9°C° 0.2 mm 1 m/S 705 mmHg 66%
    14:00 +9°C° 0.2 mm 1 m/S 705 mmHg 67%
    15:00 +9°C° 0.2 mm 1 m/S 705 mmHg 68%
    16:00 +8°C° 0.4 mm 1 m/S 705 mmHg 70%
    17:00 +7°C° 0.4 mm 1 m/S 705 mmHg 73%
    18:00 +7°C° 0.4 mm 1 m/S 705 mmHg 75%
    19:00 +7°C° 1.1 mm 1 m/S 705 mmHg 76%
    20:00 +6°C° 1.1 mm 1 m/S 704 mmHg 78%
    21:00 +6°C° 1.1 mm 1 m/S 704 mmHg 79%
    22:00 +6°C° 0.8 mm 1 m/S 704 mmHg 80%
    23:00 +6°C° 0.8 mm 1 m/S 703 mmHg 81%

    13 Dezember, Donnerstag

    Zeit Temperatur Niederschläge Wind Luftdruck Luftfeuchtigkeit
    00:00 +5°C° 0.8 mm 1 m/S 703 mmHg 83%
    01:00 +5°C° 0.4 mm 1 m/S 703 mmHg 84%
    02:00 +4°C° 0.4 mm 2 m/S 703 mmHg 85%
    03:00 +4°C° 0.4 mm 2 m/S 703 mmHg 86%
    04:00 +4°C° 0.5 mm 2 m/S 704 mmHg 87%
    05:00 +4°C° 0.5 mm 2 m/S 704 mmHg 88%
    06:00 +4°C° 0.5 mm 2 m/S 704 mmHg 89%
    07:00 +5°C° 0.6 mm 1 m/S 705 mmHg 87%
    08:00 +5°C° 0.6 mm 1 m/S 706 mmHg 85%
    09:00 +5°C° 0.6 mm 1 m/S 707 mmHg 83%
    10:00 +5°C° 0.2 mm 2 m/S 707 mmHg 79%
    11:00 +6°C° 0.2 mm 2 m/S 707 mmHg 74%
    12:00 +6°C° 0.2 mm 2 m/S 708 mmHg 69%
    13:00 +5°C° 0 mm 3 m/S 708 mmHg 68%
    14:00 +5°C° 0 mm 3 m/S 708 mmHg 66%
    15:00 +5°C° 0 mm 3 m/S 708 mmHg 64%
    16:00 +5°C° 0 mm 2 m/S 709 mmHg 67%
    17:00 +4°C° 0 mm 2 m/S 709 mmHg 70%
    18:00 +3°C° 0 mm 2 m/S 710 mmHg 73%
    19:00 +3°C° 0 mm 2 m/S 710 mmHg 73%
    20:00 +2°C° 0 mm 2 m/S 710 mmHg 73%
    21:00 +2°C° 0 mm 2 m/S 710 mmHg 73%
    22:00 +2°C° 0 mm 2 m/S 710 mmHg 73%
    23:00 +2°C° 0 mm 2 m/S 710 mmHg 72%

    14 Dezember, Freitag

    Zeit Temperatur Niederschläge Wind Luftdruck Luftfeuchtigkeit
    00:00 +2°C° 0 mm 2 m/S 710 mmHg 71%
    01:00 +1°C° 0 mm 2 m/S 711 mmHg 71%
    02:00 +1°C° 0 mm 2 m/S 711 mmHg 70%
    03:00 +2°C° 0 mm 1 m/S 711 mmHg 70%
    04:00 +2°C° 0 mm 1 m/S 711 mmHg 69%
    05:00 +2°C° 0 mm 1 m/S 712 mmHg 68%
    06:00 +1°C° 0 mm 1 m/S 712 mmHg 68%
    07:00 +2°C° 0 mm 1 m/S 712 mmHg 66%
    08:00 +2°C° 0 mm 1 m/S 713 mmHg 64%
    09:00 +3°C° 0 mm 1 m/S 713 mmHg 62%
    10:00 +4°C° 0 mm 1 m/S 713 mmHg 61%
    11:00 +4°C° 0 mm 1 m/S 713 mmHg 59%
    12:00 +5°C° 0 mm 1 m/S 712 mmHg 58%
    13:00 +5°C° 0 mm 1 m/S 713 mmHg 59%
    14:00 +5°C° 0 mm 1 m/S 713 mmHg 59%
    15:00 +5°C° 0 mm 1 m/S 713 mmHg 59%
    16:00 +4°C° 0 mm 1 m/S 713 mmHg 63%
    17:00 +3°C° 0 mm 1 m/S 714 mmHg 67%
    18:00 +2°C° 0 mm 1 m/S 714 mmHg 71%
    19:00 +1°C° 0 mm 1 m/S 714 mmHg 71%
    20:00 +1°C° 0 mm 1 m/S 714 mmHg 70%
    21:00 +1°C° 0 mm 1 m/S 715 mmHg 70%
    22:00 0°C° 0 mm 1 m/S 715 mmHg 69%
    23:00 0°C° 0 mm 1 m/S 715 mmHg 68%

    15 Dezember, Samstag

    Zeit Temperatur Niederschläge Wind Luftdruck Luftfeuchtigkeit
    00:00 0°C° 0 mm 1 m/S 715 mmHg 67%
    01:00 0°C° 0 mm 1 m/S 715 mmHg 66%
    02:00 0°C° 0 mm 1 m/S 715 mmHg 65%
    03:00 -1°C° 0 mm 1 m/S 714 mmHg 64%
    04:00 -1°C° 0 mm 1 m/S 714 mmHg 64%
    05:00 -1°C° 0 mm 1 m/S 714 mmHg 63%
    06:00 -1°C° 0 mm 1 m/S 714 mmHg 63%
    07:00 0°C° 0 mm 1 m/S 715 mmHg 61%
    08:00 +1°C° 0 mm 1 m/S 715 mmHg 58%
    09:00 +2°C° 0 mm 1 m/S 715 mmHg 56%
    10:00 +3°C° 0 mm 1 m/S 715 mmHg 54%
    11:00 +4°C° 0 mm 1 m/S 714 mmHg 52%
    12:00 +5°C° 0 mm 1 m/S 714 mmHg 50%
    13:00 +5°C° 0 mm 1 m/S 714 mmHg 50%
    14:00 +6°C° 0 mm 1 m/S 714 mmHg 51%
    15:00 +6°C° 0 mm 1 m/S 714 mmHg 52%
    16:00 +5°C° 0 mm 1 m/S 714 mmHg 55%
    17:00 +3°C° 0 mm 1 m/S 714 mmHg 58%
    18:00 +2°C° 0 mm 1 m/S 714 mmHg 61%
    19:00 +2°C° 0 mm 1 m/S 714 mmHg 60%
    20:00 +2°C° 0 mm 1 m/S 714 mmHg 60%
    21:00 +2°C° 0 mm 1 m/S 714 mmHg 59%
    22:00 +2°C° 0 mm 1 m/S 714 mmHg 59%
    23:00 +2°C° 0 mm 1 m/S 714 mmHg 58%
    Mehr zeigen